COSMOS 1950

Satellite information

Favourite Embed

Satellite Type and Status

PAYLOADIN ORBIT

Key statistics

Satellite COSMOS 1950 at a glance.

Uptime

13497

Days in orbit

Revolutions

≈ 12.4

Per day

Orbit

LEO

Low Earth Orbit

Inclination

73.6

Latest

Satellite identification and parameters

Extended collection of information and parameters for COSMOS 1950.

Object identification

Identified? True

Debris? False

Object name: COSMOS 1950

International designator: 1988-046A

Object number (NORAD): 19195

Object ID (CCSDS): 19195

Country: COMMONWEALTH OF INDEPENDENT STATES (CIS)

Current information (Y/N): Y

RCS size: LARGE

Orbital parameters

Period: 116.043 minutes

Inclination: 73.5986 deg

SMA: 7880.853 km

Apoapsis: 1521.068 km

Periapsis: 1484.369 km

RAAN: 282.3417 deg

Eccentricy: 0.0023284

Argument of periapsis: 49.3066 deg

Mean anomaly: 15.8473 deg

Mean motion: 12.4091747 rev/day

Mean motion (dot): -0.00000034 rev/day2

B* drag term: -0.00012131 1/REarth

Two-line elements (TLE)

Creation date: May 12, 2025, 7:41 p.m.

Reference frame: TEME

Reference center: EARTH

Epoch: May 12, 2025, 12:44 p.m. UTC

TLE line 0: 0 COSMOS 1950

TLE line 1: 1 19195U 88046A 25132.53081978 -.00000034 00000-0 -12131-3 0 9995

TLE line 2: 2 19195 73.5986 282.3417 0023284 49.3066 15.8473 12.40917470673907

Live tracking on map

Real-time ground track for satellite COSMOS 1950.

In-orbit conjunctions

A list of the most updated potential collisions computed for object COSMOS 1950.

Target Orbit TCA Probability of collision Miss distance Type
DELTA 1 DEB SSO 2025-04-29 06:14:09 0.0001719322 219.0 (m) DEBRIS

Associated space launch

A satellite for the GEO-IK geodetic system

COSMOS 1950 was lifted into orbit during the mission ‘Tsiklon-3 | Geo-IK 10’, on board a Tsiklon-3 space rocket.

The launch took place on May 30, 1988, 8 a.m. from 32/1.

For more information about the launch, click the button.

Launch to space Tsiklon-3 | Geo-IK 10
Tsiklon-3 | Geo-IK 10

Agency: N/A

Status: Launch Successful

Launch date: May 30, 1988, 8 a.m. UTC

Rocket: Tsiklon-3

Launch pad: 32/1

Location: Plesetsk Cosmodrome, Russian Federation

...

Latest news about this satellite

There are no fresh news available about this satellite. Check back as we update our databases every day.


Newsletter sign-up

Weekly statistics, charts and insights to help you stay on top of the space industry.